Location: Helds Island Access
(38.5526°N, 91.5997°W)
Time: 16:45:27
(UTC-06:00)

Daily predictions for brighter satellites

Satellite Brightness Start Highest point End
(mag) Time Altitude Azimuth Time Altitude Azimuth Time Altitude Azimuth
Gbstr 26 Del rocket 3.2 18:16:32 10° WSW 18:20:27 60° NW 18:24:08 10° NE
Meteor 2-4 Rocket 4.3 18:16:53 10° N 18:21:50 33° ENE 18:26:40 10° SE
Cosmos 2219 Rocket 3.5 18:19:28 10° N 18:23:30 20° NE 18:27:32 10° E
Cosmos 2360 Rocket 2.2 18:18:26 10° NNW 18:24:07 75° ENE 18:29:47 10° SSE
Tiangong 2 3.9 18:23:07 10° WSW 18:24:56 15° SW 18:26:44 10° S
Meteor 1-13 Rocket 4.2 18:23:13 10° N 18:28:46 65° E 18:34:24 10° SSE
Cosmos 2219 3.4 18:25:10 10° S 18:30:41 51° ESE 18:36:14 10° NNE
Atlas Centaur 2 4.5 18:27:10 10° S 18:30:42 14° SSE 18:33:58 10° SE
FREGAT/IRIS 3.2 18:29:56 10° SE 18:32:48 36° ENE 18:35:40 10° N
Cosmos 2227 Rocket 3.7 18:30:05 10° SE 18:33:05 15° E 18:36:05 10° ENE
Abrixas rocket 2.3 18:30:11 10° WSW 18:33:32 81° NNW 18:36:54 10° NE
Helios 1B rocket 4.3 18:34:53 10° ENE 18:36:20 12° E 18:37:47 10° ESE
Cosmos 1300 Rocket 3.5 18:33:02 10° S 18:37:26 83° E 18:41:54 10° N
Cosmos 1536 3.0 18:34:53 10° SSE 18:38:42 48° E 18:42:34 10° NNE
Cosmos 1602 4.4 18:46:36 10° SSW 18:50:25 58° W 18:54:18 10° N
Cosmos 1340 3.7 18:46:58 10° NNW 18:50:39 50° W 18:54:18 10° S
COSMO-SKYMED 1 4.3 18:46:52 10° N 18:50:52 36° WNW 18:54:50 10° SW
Cosmos 1741 Rocket 4.1 18:52:18 10° SSW 18:57:31 83° WNW 19:02:46 10° NNE
Resurs 01 Rocket 1.9 18:55:19 10° SE 18:59:27 42° ENE 19:03:38 10° N
Meteor 1-11 Rocket 4.3 18:59:34 10° SSW 19:05:20 65° W 19:11:14 10° N
ATLAS 2A CENTAUR R/B 3.9 19:04:33 10° SSW 19:06:15 13° SSE 19:08:49 10° SE
Cosmos 2327 Rocket 4.4 19:03:23 10° S 19:09:33 69° E 19:15:51 10° NNE
Cosmos 2333 Rocket 2.8 19:04:29 10° N 19:09:48 37° ENE 19:12:59 21° ESE
Resurs 1-3 3.8 19:05:40 10° SE 19:09:51 46° ENE 19:14:04 10° N
FENGYUN 3A 3.6 19:05:32 10° SSE 19:10:55 76° ENE 19:16:21 10° N
GPS 2-04 Rocket1 3.1 19:07:58 10° WSW 19:12:09 58° S 19:14:12 28° ESE
GEOS 3 Rocket 3.7 19:08:43 10° NE 19:13:51 54° ESE 19:19:01 10° SSW
Genesis I 4.2 19:12:46 10° NW 19:16:33 47° WSW 19:20:19 10° S
Cosmos 1570 Rocket 4.3 19:12:46 10° NNW 19:17:58 68° WSW 19:23:10 10° S
Okean 1 Rocket 4.3 19:14:04 10° SSW 19:18:21 45° W 19:22:41 10° N
SL-19 R/B 4.3 19:15:11 10° SSE 19:20:51 76° ENE 19:26:57 10° NNW
OTV 4 1.1 19:19:50 10° SW 19:22:38 40° SSE 19:22:38 40° SSE
Cosmos 1892 Rocket 3.7 19:19:36 10° N 19:23:50 48° E 19:26:07 24° SE
Cosmos 1025 Rocket 3.2 19:21:45 10° N 19:26:10 77° W 19:30:32 10° S
Cosmos 468 Rocket 4.1 19:21:03 10° N 19:26:11 51° ENE 19:28:51 27° SE
USA 229 DEB 3.7 19:22:00 10° NNW 19:29:11 83° ENE 19:35:24 15° SE
USA 229 3.7 19:22:06 10° NNW 19:29:17 82° ENE 19:35:25 15° SE
Cosmos 2074 Rocket 4.1 19:23:09 10° S 19:29:23 77° W 19:35:42 10° N
Spot 2 Rocket 3.4 19:24:27 10° SSE 19:29:30 87° ENE 19:34:37 10° NNW
Cosmos 2082 3.9 19:29:28 10° S 19:34:54 46° ESE 19:37:59 24° NE
Cosmos 2184 Rocket 4.3 19:29:34 10° SSW 19:35:52 71° W 19:42:07 10° N
Hubble Space Telescope 2.5 19:35:44 10° SW 19:38:45 20° S 19:38:56 19° S
Spot 1 3.8 19:39:07 56° ESE 19:39:41 64° ENE 19:43:49 10° N
Meteor 2-13 Rocket 4.3 19:34:14 10° S 19:40:16 85° E 19:46:25 10° N
Cosmos 1544 Rocket 3.4 19:41:23 10° S 19:45:42 87° ESE 19:50:02 10° N
Envisat 3.7 19:47:02 36° NE 19:47:02 36° NE 19:50:48 10° N
Cosmos 1814 Rocket 3.9 19:42:10 10° N 19:47:16 59° ENE 19:47:53 55° E
Cosmos 405 Rocket 2.8 19:43:17 10° N 19:47:22 82° W 19:48:31 45° S
H-2A R/B 3.5 19:46:20 10° S 19:49:55 49° W 19:53:35 10° NNW
ALOS 3.7 19:45:45 10° SSW 19:50:06 39° W 19:54:28 10° NNW
CZ-2D R/B 3.4 19:49:35 42° S 19:50:44 69° W 19:54:32 10° NNW
USA 32 4.4 19:50:05 10° N 19:54:07 44° NE 19:54:07 44° NE
Nadezhda 3 Rocket 3.8 19:49:12 10° N 19:55:23 76° E 19:59:43 21° SSE
Cosmos 2237 Rocket 2.1 19:50:07 10° NNW 19:55:48 64° ENE 19:56:29 59° E
Cosmos 2297 Rocket 2.1 19:50:25 10° S 19:55:57 60° ESE 19:56:25 58° E
NOSS 0 Rocket 3.8 19:50:26 10° NNW 19:56:37 87° ENE 19:59:13 37° SSE
NOSS 3-1 (C) 4.1 19:52:12 10° NNW 19:59:47 63° NE 20:02:16 45° ESE
COSMOS 2428 4.1 19:54:39 10° NW 19:59:50 37° WSW 20:05:01 10° S
Cosmos 1066 Rocket 4.3 19:55:09 10° N 20:00:02 53° NE 20:00:02 53° NE
Meteor 1-12 Rocket 4.2 19:55:50 10° S 20:01:49 83° E 20:07:45 10° N
Cosmos 2341 Rocket 3.9 19:57:50 10° S 20:04:10 75° E 20:10:33 10° N
Cosmos 2154 Rocket 4.1 19:58:58 10° S 20:05:19 80° W 20:11:41 10° N
H-2A R/B 4.2 20:02:41 10° SSW 20:42:28 - E 20:06:25 28° SSE
Cosmos 2219 Rocket 2.6 20:02:21 10° NNW 20:07:52 59° WSW 20:10:46 28° S
Helios 1A 3.5 20:10:07 55° WSW 20:10:12 56° W 20:14:18 10° NNW
Helios 1B rocket 3.2 20:07:53 10° N 20:11:55 51° WNW 20:15:56 10° SSW
OAO 3 Rocket 4.4 20:07:53 10° SW 20:11:09 33° SSW 20:11:09 33° SSW
Cosmos 1486 Rocket 4.1 20:09:51 10° SSW 20:15:10 77° WNW 20:16:55 43° N
Cosmos 2227 Rocket 2.4 20:10:49 10° SSW 20:16:26 69° WNW 20:20:35 19° NNE
Atlas Centaur 2 3.7 20:13:37 10° SW 20:18:27 26° S 20:18:27 26° S
Cosmos 1455 Rocket 4.2 20:19:05 10° SSW 20:23:15 42° W 20:27:24 10° N
BREEZE-M DEB (TANK) 3.8 20:21:08 10° WNW 20:24:34 50° SSW 20:25:25 46° S
Cosmos 841 Rocket 4.5 20:23:23 10° NNW 20:26:32 38° N 20:26:32 38° N
SL-16 R/B 3.4 20:26:06 10° NNW 20:29:17 32° N 20:29:17 32° N
Resurs 01 Rocket 4.4 20:33:27 10° SW 20:36:07 16° W 20:38:47 10° NW
Cosmos 1763 Rocket 4.4 20:34:00 10° NNW 20:37:34 43° NW 20:37:34 43° NW
Cosmos 2333 Rocket 3.8 20:48:58 10° NW 20:53:54 30° WSW 20:55:05 28° SW
ATLAS 2AS CENTAUR R/B 4.2 21:31:14 10° NNW 21:35:33 33° NNW 21:35:33 33° NNW
